Location: Badiung Bay
(11.9356°N, 124.2897°E)
Time: 02:30:58
(UTC+00:00)

Daily predictions for brighter satellites

Satellite Brightness Start Highest point End
(mag) Time Altitude Azimuth Time Altitude Azimuth Time Altitude Azimuth
ATLAS 3B CENTAUR R/B 4.0 09:32:05 10° WNW 09:38:54 65° SSW 09:54:54 10° SE
Meteosat 1 Rocket2 4.4 09:44:18 10° NW 09:49:42 56° NNE 09:58:07 10° ESE
Cosmos 2298 Rocket 4.2 09:48:08 10° SSW 09:53:27 84° WNW 09:58:46 10° N
Iridium 4 Rocket 3.7 09:54:50 10° S 09:59:28 74° W 10:04:34 10° N
Cosmos 1464 Rocket 4.1 09:55:13 10° SSE 10:01:08 52° E 10:07:01 10° NNE
Cosmos 2285 Rocket 4.2 09:56:21 10° S 10:02:21 49° E 10:08:22 10° NNE
Cosmos 1943 3.7 09:58:08 10° N 10:03:21 38° ENE 10:08:35 10° SE
IRS-1C Rocket 4.1 09:59:35 10° SSE 10:04:45 60° ENE 10:09:53 10° N
Cosmos 1300 Rocket 3.6 10:00:29 10° S 10:04:45 55° E 10:09:03 10° NNE
USA 215 3.5 09:58:15 10° SSE 10:04:47 77° SW 10:11:20 10° NW
USA 116 4.0 10:01:16 10° NNE 10:05:31 69° ESE 10:10:18 10° S
Sich 1 Rocket 4.0 10:02:28 10° S 10:06:54 71° W 10:11:22 10° N
Gbstr 26 Del rocket 4.2 10:04:37 10° SSW 10:09:53 45° ESE 10:16:21 10° NE
Cosmos 158 Rocket 4.4 10:07:04 10° NNW 10:12:04 64° WSW 10:16:55 10° S
Cosmos 1842 3.2 10:11:07 10° N 10:14:59 85° E 10:18:53 10° S
CZ-4 R/B 4.5 10:11:09 10° SSE 10:15:09 54° ENE 10:19:10 10° N
Cosmos 1125 Rocket 3.6 10:10:00 10° SSW 10:15:17 89° WNW 10:20:35 10° NNE
Okean 2 Rocket 3.1 10:13:10 10° S 10:17:41 89° E 10:22:10 10° N
Cosmos 1707 3.8 10:15:32 10° NNE 10:18:38 23° E 10:21:42 10° SE
YAOGAN 1 3.2 10:16:10 10° SE 10:20:02 33° ENE 10:23:54 10° NNE
CZ-2C R/B 3.9 10:15:57 10° SE 10:20:11 27° ENE 10:24:36 10° NNE
Helios 1A Rocket 2.8 10:17:48 10° SSE 10:21:53 79° ENE 10:25:58 10° N
FUSE 4.0 10:19:44 10° WSW 10:25:00 69° SSE 10:28:56 18° ENE
TSX-5 3.3 10:24:33 10° SSW 10:27:40 81° WNW 10:31:09 10° NNE
Cosmos 1603 3.7 10:23:20 10° NNW 10:28:56 90° ENE 10:34:30 10° SSE
Palapa 6 Rocket 3.5 10:25:22 10° W 10:28:59 41° NNW 10:31:36 16° NE
Cosmos 2084 Rocket 3.5 10:26:15 10° NNW 10:30:47 72° ENE 10:35:19 10° SSE
Fermi 4.4 10:28:23 10° NW 10:32:13 40° NNE 10:34:04 25° ENE
ARGOS 4.4 10:33:50 19° ENE 10:33:50 19° ENE 10:37:19 10° NNE
Cosmos 1867 4.4 10:30:32 10° N 10:35:13 29° ENE 10:37:08 23° E
COSMOS 2455 4.1 10:33:31 10° SSE 10:37:02 20° ESE 10:37:02 20° ESE
Delta 168 3.1 10:33:48 10° WNW 10:39:04 70° SSW 10:41:04 27° SE
Okean-O 2.6 10:34:51 10° S 10:39:17 85° WSW 10:43:42 10° NNW
Cosmos 1025 Rocket 3.7 10:35:39 10° NNE 10:39:34 32° E 10:40:57 26° ESE
Fregat R/B Cluster 11 3.3 10:38:41 10° SSW 10:40:04 37° SSE 10:40:04 37° SSE
CZ-4 R/B 1.5 10:38:56 10° S 10:43:09 86° WSW 10:47:22 10° NNW
Meteor 1-15 Rocket 4.1 10:39:13 10° S 10:44:46 81° E 10:50:24 10° N
CZ-2D R/B 4.1 10:43:02 10° S 10:46:48 52° W 10:50:34 10° NNW
USA 234 3.2 10:42:41 10° NE 10:49:14 79° SE 10:55:46 10° SSW
In-Cosmos 22 4.2 10:47:21 10° N 10:52:35 50° E 10:57:56 10° SSE
MOS 1 Rocket 4.0 10:51:50 10° N 10:55:57 49° WNW 11:00:08 10° SSW
CZ-2C R/B 2.7 10:50:29 10° NNE 10:56:00 58° ESE 11:01:28 10° S
Centaur AC-119 2.9 10:55:51 10° W 11:00:14 34° NNW 11:00:35 33° NNW
H-2A R/B 1.9 10:59:33 36° SE 11:01:17 56° ENE 11:06:09 10° N
Intelsat 5-3 Rocket 3.7 10:58:50 10° W 11:02:50 55° SSW 11:06:56 28° SE
SEDSat Delta rocket 4.1 10:57:43 10° WNW 11:02:57 45° SW 11:04:59 29° SSE
Nadezhda 4 Rocket 4.0 10:59:16 10° N 11:05:12 52° E 11:08:20 28° SSE
IUS-14 SRM-1 3.9 10:49:57 10° WSW 11:07:18 59° SSE 11:08:23 48° ESE
DMSP B5D2-2 3.9 11:03:31 10° NNE 11:08:44 67° ESE 11:13:57 10° S
Cosmos 2278 Rocket 2.0 11:05:34 10° S 11:11:12 77° ESE 11:15:06 21° NNE
Ariane H10+ 3.7 10:56:13 10° WSW 11:12:14 48° S 11:13:21 41° SSE
Meteor 1-22 Rocket 4.1 11:07:56 10° S 11:13:33 67° E 11:19:22 10° NNE
ARIANE 5 R/B 3.3 11:18:24 10° WSW 11:24:09 31° SSW 11:24:09 31° SSW
NATO 3D Rocket 3.9 11:22:10 10° W 11:27:34 48° NNW 11:27:38 48° NNW
Cosmos 1634 Rocket 3.8 11:23:45 10° S 11:29:55 87° W 11:36:05 10° N
CSL-04 Rocket 4.5 11:30:01 10° S 11:35:08 48° WSW 11:40:22 10° NNW
Ariane H10 4.2 11:21:22 10° W 11:36:46 42° SSW 11:38:38 37° S
